Location: ????????
(55.4000°N, 39.1167°E)
Time: 20:24:28
(UTC+00:00)

Cosmos 1300 - Pass Details

Date: 19 May 2025
Orbit: 319 x 324 km, 82.5° (Epoch: 15 December)

Event Time Altitude Azimuth Distance (km) Brightness Sun altitude
Rises 20:35:54 0° 354° (N) 2,094 7.8 -14.1°
Reaches altitude 10° 20:37:56 10° 5° (N) 1,249 5.9 -14.1°
Maximum altitude 20:40:24 32° 72° (ENE) 584 3.0 -14.2°
Enters shadow 20:41:25 23° 116° (ESE) 746 3.2 -14.2°
